Location: Palomar Mountain Lodge
(33.3110°N, 116.8495°W)
Time: 21:06:36
(UTC-08:00)

Daily predictions for brighter satellites

Satellite Brightness Start Highest point End
(mag) Time Altitude Azimuth Time Altitude Azimuth Time Altitude Azimuth
ASTRO E2 3.4 17:57:27 10° W 18:01:22 52° S 18:05:17 10° ESE
ATLAS 2A CENTAUR R/B 2.3 17:59:48 10° SW 18:01:32 22° SSE 18:05:01 10° ESE
Cosmos 1818 3.6 18:00:36 10° SSW 18:06:00 73° ESE 18:11:27 10° NNE
Cosmos 1484 Rocket 3.6 18:02:23 10° S 18:06:18 58° W 18:10:11 10° NNW
SJ-6B 3.7 18:04:15 10° SE 18:07:45 29° ENE 18:11:12 10° NNE
ERBS 3.3 18:06:39 10° NW 18:10:01 51° SW 18:13:22 10° SSE
Meteor 1-18 Rocket 4.2 18:06:57 10° N 18:12:30 69° E 18:18:05 10° SSE
Resurs 01 Rocket 2.9 18:12:32 10° ESE 18:15:39 19° ENE 18:18:46 10° NNE
SL-16 R/B 2.3 18:10:05 10° NNW 18:15:40 57° ENE 18:21:12 10° SE
TSX-5 3.3 18:13:37 10° S 18:16:49 55° ESE 18:19:55 10° NNE
Cosmos 1340 3.8 18:14:48 10° NNE 18:17:50 22° ENE 18:20:49 10° SE
Cosmos 407 Rocket 3.7 18:13:57 10° SSW 18:19:09 81° WNW 18:24:27 10° NNE
Cosmos 1992 Rocket 4.3 18:14:27 10° NNW 18:19:40 71° WSW 18:24:51 10° S
Nadezhda 1 Rocket 3.9 18:14:32 10° N 18:20:38 87° E 18:26:42 10° S
DNEPR-1 R/B 3.8 18:17:14 10° NNW 18:21:15 43° ENE 18:25:23 10° SE
Cosmos 676 Rocket 3.9 18:16:15 10° S 18:21:22 71° ESE 18:26:33 10° NNE
Gbstr 26 Del rocket 2.9 18:19:32 10° SSW 18:23:22 51° SE 18:26:33 13° ENE
Cosmos 1238 Rocket 3.6 18:21:31 10° NE 18:23:35 17° ENE 18:24:54 14° ESE
Tiangong 2 2.4 18:22:14 10° NW 18:24:52 25° NNE 18:26:33 16° ENE
DELTA 2 R/B (1) 4.1 18:19:33 10° WNW 18:24:57 47° N 18:29:26 15° ENE
Orbus 7S 4.2 18:23:58 10° WSW 18:26:17 27° S 18:28:52 11° ESE
BREEZE-M DEB (TANK) 3.8 18:21:27 10° NW 18:28:50 42° NNE 18:30:57 18° E
Cosmos 1300 Rocket 3.8 18:27:01 10° SSE 18:31:11 44° E 18:35:23 10° NNE
Cosmos 1536 3.8 18:29:05 10° SE 18:32:19 24° E 18:35:33 10° NE
Cosmos 2322 Rocket 2.1 18:27:53 10° NNW 18:33:32 86° ENE 18:39:08 10° SSE
Cosmos 44 Rocket 4.4 18:29:48 10° NW 18:34:17 45° WSW 18:38:42 10° S
Cosmos 2181 Rocket 4.2 18:29:04 10° N 18:35:03 46° E 18:41:05 10° SSE
Resurs 1-3 4.5 18:34:21 10° SE 18:38:05 28° ENE 18:41:49 10° NNE
Meteor 1-13 Rocket 4.4 18:36:02 10° N 18:41:24 49° E 18:46:50 10° SSE
Okean 1 3.3 18:38:08 10° N 18:42:12 86° W 18:46:15 10° S
Cosmos 1140 Rocket 3.4 18:39:02 10° S 18:44:05 68° ESE 18:49:12 10° NNE
ATLAS CENTAUR R/B 3.2 18:40:24 10° S 18:45:13 22° SE 18:45:59 21° ESE
FENGYUN 3A 3.7 18:39:58 10° SSE 18:45:14 57° ENE 18:50:32 10° N
Cosmos 1461 2.7 18:42:02 10° NNW 18:46:04 72° ENE 18:50:11 10° SSE
Cosmos 2322 4.3 18:41:09 10° N 18:46:19 34° ENE 18:49:34 20° ESE
H-2A R/B 3.3 18:45:20 22° ESE 18:47:02 33° ENE 18:50:23 10° N
Cosmos 2074 Rocket 4.4 18:43:32 10° SSE 18:49:12 38° E 18:54:55 10° NNE
Cosmos 1709 Rocket 4.1 18:43:39 10° S 18:49:54 82° W 18:56:06 10° N
Cosmos 2184 Rocket 4.4 18:44:15 10° SSE 18:50:00 38° E 18:55:42 10° NNE
H-2A ROCKET BODY 4.5 18:30:06 10° W 18:50:13 32° SW 18:55:37 10° SSE
SL-19 R/B 4.4 18:48:01 10° SSE 18:53:29 57° ENE 18:59:12 10° N
Cosmos 44 4.2 18:49:37 10° NW 18:53:45 43° WSW 18:57:47 10° S
Spot 2 Rocket 3.6 18:49:14 10° SSE 18:54:06 52° ENE 18:59:00 10° N
Cosmos 614 Rocket 3.8 18:51:17 10° S 18:56:18 66° ESE 19:01:20 10° NNE
Helios 1A 4.2 18:58:08 24° NE 18:58:08 24° NE 19:00:31 10° NNE
COSMOS 2428 3.9 18:54:53 10° N 18:59:04 23° NE 18:59:04 23° NE
Meteor 2-4 Rocket 3.9 18:55:23 10° N 19:00:37 43° ENE 19:04:58 14° SE
HJ-1C 3.4 18:58:41 10° S 19:02:03 83° WSW 19:05:25 10° NNW
Okean 1 Rocket 3.0 18:57:42 10° S 19:02:10 80° E 19:06:39 10° N
Cosmos 1850 Rocket 3.9 18:57:59 10° S 19:03:10 64° ESE 19:08:26 10° NNE
GPS 2-04 Rocket1 3.2 19:00:12 10° SW 19:04:22 50° SSE 19:05:18 42° ESE
Abrixas rocket 3.0 19:03:13 10° SSW 19:05:50 37° SSE 19:05:50 37° SSE
Meteor 1-11 Rocket 4.0 19:06:18 10° SSW 19:12:00 74° W 19:17:53 10° N
Cosmos 2219 3.1 19:12:45 10° S 19:18:27 71° ESE 19:23:09 16° NNE
Cosmos 1633 4.5 19:15:37 10° SW 19:18:54 31° W 19:22:12 10° NNW
Helios 1B rocket 2.2 19:20:32 53° NNE 19:21:25 77° E 19:25:33 10° S
Okean 1-7 Rocket 3.4 19:20:57 10° N 19:25:29 76° E 19:25:47 72° ESE
Cosmos 2360 Rocket 2.1 19:20:00 10° NNW 19:25:41 88° ENE 19:28:56 26° SSE
Cosmos 2219 Rocket 4.0 19:24:20 10° N 19:25:54 16° NNE 19:25:54 16° NNE
OAO 3 Copernicus 4.1 19:25:21 10° WNW 19:30:26 90° N 19:30:52 75° ESE
ALOS 3.6 19:29:57 10° SSW 19:34:16 38° W 19:38:37 10° NNW
Cosmos 1025 Rocket 4.5 19:30:30 10° N 19:32:29 26° N 19:32:29 26° N
BREEZE-M DEB (TANK) 4.4 19:36:17 10° W 19:39:12 25° NW 19:39:12 25° NW
Meteor 2-13 Rocket 4.2 19:37:39 10° S 19:43:39 71° E 19:49:41 10° NNE
CZ-3 Stage 3 4.5 19:39:36 10° WSW 19:44:31 73° SSE 19:50:54 39° E
Resurs 01 Rocket 3.4 19:48:01 10° SSW 19:51:53 30° W 19:55:46 10° NW
Cosmos 2333 Rocket 4.2 19:49:46 10° N 19:51:05 16° N 19:51:05 16° N
H-2A R/B (2) 3.8 19:55:08 10° WSW 19:55:29 13° WSW 19:55:29 13° WSW
Hubble Space Telescope 3.7 20:00:26 10° SW 20:00:33 11° SW 20:00:33 11° SW
DELTA 2 R/B (1) 4.3 20:06:07 10° WNW 20:10:13 50° WNW 20:10:13 50° WNW
